Weather in Nizhniye Peny

Russia / Belgorod Oblast     51°00′18″N   35°57′01″E
temp.,
°C
wind,
m/s
gust,
m/s
humid.,
%
clouds,
%
prec.,
mm/h
press.,
hPa
HPBL,
m
23 april, fri
fri2300:00+10s4972100 0.0 1019199
03:00+9s4975100 0.0 1018206
06:00+7s498719 0.3 1018171
09:00+12s6107238 0.3 1018601
12:00+15ssw795513 0.0 10161441
15:00+16ssw7115167 1.5 10142287
18:00+13sw6870100 1.6 10131087
21:00+9wsw2493100 6.6 1013391
24 april, sat
sat2400:00+7nw5889100 0.9 1013681
03:00+4nw41090100 2.8 1014695
06:00+5wsw378844 0.1 1013450
09:00+7w796887 0.5 10131104
12:00+9w8104898 0.4 10142250
15:00+7w8135096 0.8 10152435
18:00+5wnw8136124 0.4 10161726
21:00+3w511650 0.4 1018493
25 april, sun
sun2500:00+2w512730 0.0 1018428
03:00+1wsw511801 0.0 1019326
06:000wsw38844 0.0 1019193
09:00+6wsw69524 0.0 10191177
12:00+9sw68375 0.0 10182193
15:00+10sw81144100 0.0 10162379
18:00+7w7117997 0.4 1016842
21:00+5w5791100 2.4 1017805
26 april, mon
mon2600:00+3wsw238796 0.8 1017101
03:00+1w228899 0.8 101723
06:000w238899 0.0 101774
09:00+5w2363100 0.0 1016713
12:00+7w3347100 0.1 10151994
15:00+8wsw445196 0.4 10141505
18:00+7w565795 0.5 10131266
21:00+3w347621 0.8 101455
27 april, tue
tue2700:00+2sw3784100 0.1 1014140
03:00+1w499650 0.1 1014314
06:000wsw36949 0.0 1015219
09:00+5wsw45625 0.0 1015784
12:00+7wsw5648100 0.4 10142000
15:00+8w5649100 0.9 10131647
18:00+7wsw455416 0.5 10131430
21:00+3w34765 0.8 101560